星链-32602 (STARLINK-32602)

导读

STARLINK-32602是美国SpaceX星链星座的卫星,于2024年11月30日08:00发射升空,隶属于太空探索技术公司打造的星链互联网卫星星座项目,该项目旨在为全球提供高速低延迟卫星互联网服务,这颗卫星进一步扩充了星链星座的在轨规模,助力全球网络覆盖布局的推进。

Basic Information
目录编号:
62181
目录名称:
STARLINK-32602
国际标识:
2024-225U
轨道中心:
EARTH
卫星名称:
星链-32602
卫星全名:
星链-32602 (STARLINK-32602)
卫星状态:
在轨 (已飞行643 天)
发射日期:
2024-11-30 UTC
国别 :
美国 (US)
星等 :
--
Orbit Information
数据来源 国际轨道数据
星历时间: 2026-09-02T22:00:02+0800
1天前
查看轨道信息
半长轴: 6887.702km
偏心率: 0.0002281
轨道倾角: 69.999°
近地点辐角 278.302°
升交点赤经 68.217°
平近点角 226.297°
近地点: 507.993km
远地点: 511.137km
周期: 94.814分钟
每日圈数: 15.187674
Detailed Information
固有亮度:
5
最大亮度:
2.5
卫星平台:
Starlink V1.0
覆盖范围:
全球
运营商:
太空探索技术公司
运营商所在国:
美国
制造商(研发单位):
太空探索技术公司
制造商所在国:
美国
使用方式:
暂无
Satellite Introduction
Starlink 计划是 SpaceX 推出的全球卫星互联网项目,通过发射低轨道卫星,为全球尤其是偏远地区提供高速、低延迟的互联网服务。自 2019 年起,Starlink 已部署数千颗卫星,旨在缩小全球数字鸿沟,推动互联网普及。该项目还为军事、航空等行业提供通信支持,带来广泛经济效益。
2D Orbit Map
3D Orbit Map
Orbit Altitude Analysis Chart
Orbit Inclination Analysis Chart
Orbit Comprehensive Analysis Chart
View Comprehensive Chart
Conjunction Data List
Event ID Objects TCA Miss Dist (km) Collision Risk Probability Collision Risk Index (CRI) Action
CDM_260904-054306-218106-741721
2026-09-04T
05:43:06+0000
0.474 km
远距离
1.926154E-4 高风险 0.81
CDM_260905-025706-218106-468121
2026-09-05T
02:57:34+0000
1.685 km
极远距离
2.638457E-6 低风险 0.43
CDM_260905-043106-218106-468121
2026-09-05T
04:31:22+0000
1.772 km
极远距离
2.292058E-6 低风险 0.42
CDM_260904-044005-964306-218121
2026-09-04T
04:40:08+0000
2.108 km
极远距离
2.234046E-6 低风险 0.42
CDM_260829-235803-905206-218121
2026-08-29T
23:58:12+0000
2.345 km
极远距离
1.973745E-6 低风险 0.41
CDM_260905-023505-383406-218121
2026-09-05T
02:35:34+0000
2.296 km
极远距离
1.913657E-6 低风险 0.41
CDM_260904-071706-218106-741721
2026-09-04T
07:17:18+0000
2.370 km
极远距离
1.613026E-6 低风险 0.39
CDM_260904-061405-964306-218121
2026-09-04T
06:14:20+0000
2.507 km
极远距离
1.562291E-6 低风险 0.39
CDM_260904-045706-203306-218121
2026-09-04T
04:57:43+0000
2.361 km
极远距离
1.477924E-6 低风险 0.38
CDM_260904-071906-203306-218121
2026-09-04T
07:19:00+0000
2.366 km
极远距离
1.47266E-6 低风险 0.38